DW6233 Weather Reports


time (UTC)temp
C
wind
direction
speed
KPH
gust
KPH
rain 1hr
cm
rain 24hr
cm
rain mn
cm
humidity
%
barometer
mb
20260505064517 12 74 3.2 11.3 0.00 0.00 0.00 80 1031.4
20260505063016 12 43 4.8 19.3 0.00 0.00 0.00 80 1031.4
20260505061519 12 79 3.2 12.9 0.00 0.00 0.00 80 1031.6
20260505060014 12 4 0.0 8.0 0.00 0.00 0.00 80 1031.5
20260505054508 12 81 0.0 14.5 0.00 0.00 0.00 79 1031.5
20260505053015 13 74 4.8 19.3 0.00 0.00 0.00 79 1031.5
20260505051536 13 38 6.4 19.3 0.00 0.00 0.00 78 1031.5
20260505041502 13 15 9.7 25.7 0.00 0.00 0.00 76 1031.8
20260505040059 13 28 11.3 22.5 0.00 0.00 0.00 75 1031.7
20260505034534 14 20 9.7 25.7 0.00 0.00 0.00 75 1031.8
20260505033012 15 45 8.0 19.3 0.00 0.00 0.00 73 1031.7
20260505031535 15 345 16.1 24.1 0.00 0.00 0.00 72 1031.7
20260505030044 15 36 14.5 22.5 0.00 0.00 0.00 72 1031.6
20260505024552 15 349 22.5 32.2 0.00 0.00 0.00 70 1031.7
20260505023002 15 358 16.1 29.0 0.00 0.00 0.00 71 1031.8
20260505021539 15 12 19.3 30.6 0.00 0.00 0.00 71 1032.0
20260505014516 14 27 24.1 33.8 0.00 0.00 0.00 72 1032.1
20260505013033 14 14 14.5 29.0 0.00 0.00 0.00 73 1032.2
20260505011544 14 4 17.7 27.4 0.00 0.00 0.00 73 1032.4
20260505010057 14 15 14.5 22.5 0.00 0.00 0.00 74 1032.6
20260505004534 14 89 12.9 22.5 0.00 0.00 0.00 74 1032.9
20260505003005 14 11 24.1 30.6 0.00 0.00 0.00 73 1033.1
20260505001554 14 22 12.9 27.4 0.00 0.00 0.00 75 1033.3
20260505000039 14 5 16.1 27.4 0.00 0.00 0.00 74 1033.5
20260504234525 14 60 11.3 24.1 0.00 0.00 0.00 74 1033.7
20260504233010 14 6 11.3 22.5 0.00 0.00 0.00 72 1033.9
20260504231558 14 12 11.3 22.5 0.00 0.00 0.00 73 1033.9
20260504224544 14 39 14.5 25.7 0.00 0.00 0.00 73 1034.1
20260504223035 14 36 19.3 29.0 0.00 0.00 0.00 70 1034.0
20260504221525 14 17 14.5 29.0 0.00 0.00 0.00 74 1034.0
20260504220036 14 357 17.7 32.2 0.00 0.00 0.00 72 1034.1
20260504214521 13 25 14.5 27.4 0.00 0.00 0.00 71 1034.2
20260504213037 13 19 17.7 25.7 0.00 0.00 0.00 73 1034.1
20260504211509 13 13 17.7 35.4 0.00 0.00 0.00 72 1034.2
20260504210030 13 36 12.9 27.4 0.00 0.00 0.00 73 1034.2
20260504210007 13 56 11.3 27.4 0.00 0.00 0.00 73 1034.2
20260504204519 13 90 14.5 27.4 0.00 0.00 0.00 73 1034.2
20260504203058 13 63 11.3 25.7 0.00 0.00 0.00 74 1034.2
20260504201558 13 22 12.9 19.3 0.00 0.00 0.00 74 1034.2
20260504200017 13 38 14.5 30.6 0.00 0.00 0.00 75 1034.1
20260504194530 13 48 16.1 25.7 0.00 0.00 0.00 74 1034.0
20260504193027 13 10 11.3 20.9 0.00 0.00 0.00 75 1033.9
20260504191502 13 24 11.3 22.5 0.00 0.00 0.00 75 1033.9
20260504190032 13 88 9.7 19.3 0.00 0.00 0.00 76 1033.9
20260504184528 13 26 11.3 24.1 0.00 0.00 0.00 76 1033.8
20260504183026 13 68 11.3 22.5 0.00 0.00 0.00 76 1033.8
20260504181534 13 36 11.3 22.5 0.00 0.00 0.00 76 1033.8
20260504180110 13 19 12.9 27.4 0.00 0.00 0.00 76 1033.8
20260504174557 13 27 19.3 29.0 0.00 0.00 0.00 76 1033.9
20260504171553 14 342 17.7 32.2 0.00 0.00 0.00 76 1033.8
20260504120104 14 36 14.5 22.5 0.00 0.00 0.00 77 1034.7
20260504100117 14 20 14.5 25.7 0.00 0.00 0.00 74 1034.8
20260504081525 14 36 8.0 27.4 0.00 0.00 0.00 74 1034.4